Location: Newark
(7.0858°N, 171.3717°E)
Time: 21:01:27
(UTC+00:00)

Tiros 1 - Pass Details

Date: 05 December 2020
Orbit: 630 x 663 km, 48.4° (Epoch: 18 January)

Event Time Altitude Azimuth Distance (km) Brightness Sun altitude
Rises 22:09:00 0° 210° (SSW) 2,949 10.7 45.4°
Reaches altitude 10° 22:11:22 10° 205° (SSW) 2,044 10.0 45.8°
Maximum altitude 22:15:58 53° 128° (SE) 796 10.4 46.6°
Drops below altitude 10° 22:20:36 10° 52° (NE) 2,060 9.9 47.5°
Sets 22:22:59 0° 47° (NE) 2,974 10.6 47.9°
